Time,TemperatureF,DewpointF,PressureIn,WindDirection,WindDirectionDegrees,WindSpeedMPH,WindSpeedGustMPH,Humidity,HourlyPrecipIn,Conditions,Clouds,dailyrainin,SoftwareType,DateUTC
2013-02-20 00:05:00,33.8,31.1,29.86,South,180,0.0,0.0,90,0.00,,,0.00,WUHU216HW,2013-02-20 08:05:00,
2013-02-20 00:28:00,33.8,31.1,29.87,NE,45,0.0,0.0,90,0.00,,,0.00,WUHU216HW,2013-02-20 08:28:00,
2013-02-20 00:33:00,33.8,31.1,29.87,NE,45,0.0,0.0,90,0.00,,,0.00,WUHU216HW,2013-02-20 08:33:00,
2013-02-20 00:58:00,33.7,31.0,29.87,NNE,23,0.0,0.0,90,0.00,,,0.00,WUHU216HW,2013-02-20 08:58:00,
2013-02-20 01:03:00,33.7,31.0,29.87,NNE,23,0.0,0.0,90,0.00,,,0.00,WUHU216HW,2013-02-20 09:03:00,
2013-02-20 01:28:00,33.8,31.1,29.88,SW,225,0.4,0.4,90,0.00,,,0.00,WUHU216HW,2013-02-20 09:28:00,
2013-02-20 01:33:00,33.8,31.1,29.88,SW,225,0.4,0.4,90,0.00,,,0.00,WUHU216HW,2013-02-20 09:33:00,
2013-02-20 01:58:00,34.0,31.3,29.88,SSW,203,0.0,0.0,90,0.00,,,0.00,WUHU216HW,2013-02-20 09:58:00,
2013-02-20 02:03:00,34.0,31.3,29.88,SSW,203,0.0,0.0,90,0.00,,,0.00,WUHU216HW,2013-02-20 10:03:00,
2013-02-20 02:28:00,34.0,31.3,29.88,SSW,203,0.2,0.2,90,0.00,,,0.00,WUHU216HW,2013-02-20 10:28:00,
2013-02-20 02:33:00,34.0,31.3,29.88,SSW,203,0.2,0.2,90,0.00,,,0.00,WUHU216HW,2013-02-20 10:33:00,
2013-02-20 02:58:00,34.0,31.3,29.89,SSW,203,0.0,0.0,90,0.00,,,0.00,WUHU216HW,2013-02-20 10:58:00,
2013-02-20 03:03:00,34.0,31.3,29.89,SSW,203,0.0,0.0,90,0.00,,,0.00,WUHU216HW,2013-02-20 11:03:00,
2013-02-20 03:28:00,34.0,31.1,29.89,South,180,0.0,0.0,89,0.00,,,0.00,WUHU216HW,2013-02-20 11:28:00,
2013-02-20 03:33:00,34.0,31.1,29.89,South,180,0.0,0.0,89,0.00,,,0.00,WUHU216HW,2013-02-20 11:33:00,
2013-02-20 03:58:00,33.8,31.1,29.90,ESE,113,0.0,0.0,90,0.00,,,0.00,WUHU216HW,2013-02-20 11:58:00,
2013-02-20 04:03:00,33.8,31.1,29.90,ESE,113,0.0,0.0,90,0.00,,,0.00,WUHU216HW,2013-02-20 12:03:00,
2013-02-20 04:08:00,33.8,31.1,29.90,ESE,113,0.0,0.0,90,0.00,,,0.00,WUHU216HW,2013-02-20 12:08:00,
2013-02-20 04:28:00,33.7,31.0,29.91,ESE,113,0.0,0.0,90,0.00,,,0.00,WUHU216HW,2013-02-20 12:28:00,
2013-02-20 04:33:00,33.7,31.0,29.91,ESE,113,0.0,0.0,90,0.00,,,0.00,WUHU216HW,2013-02-20 12:33:00,
2013-02-20 04:58:00,33.5,31.1,29.91,SW,225,0.0,0.0,91,0.00,,,0.00,WUHU216HW,2013-02-20 12:58:00,
2013-02-20 05:03:00,33.5,31.1,29.91,SW,225,0.0,0.0,91,0.00,,,0.00,WUHU216HW,2013-02-20 13:03:00,
2013-02-20 05:08:00,33.5,31.1,29.91,SW,225,0.0,0.0,91,0.00,,,0.00,WUHU216HW,2013-02-20 13:08:00,
2013-02-20 05:28:00,33.7,31.2,29.92,SW,225,0.0,0.0,91,0.00,,,0.00,WUHU216HW,2013-02-20 13:28:00,
2013-02-20 05:33:00,33.7,31.2,29.92,SW,225,0.0,0.0,91,0.00,,,0.00,WUHU216HW,2013-02-20 13:33:00,
2013-02-20 05:58:00,33.5,31.1,29.92,SW,225,0.0,0.0,91,0.00,,,0.00,WUHU216HW,2013-02-20 13:58:00,
2013-02-20 06:03:00,33.5,31.1,29.92,SW,225,0.0,0.0,91,0.00,,,0.00,WUHU216HW,2013-02-20 14:03:00,
2013-02-20 06:08:00,33.5,31.1,29.92,SW,225,0.0,0.0,91,0.00,,,0.00,WUHU216HW,2013-02-20 14:08:00,
2013-02-20 06:28:00,33.7,31.2,29.93,SW,225,0.0,0.0,91,0.00,,,0.00,WUHU216HW,2013-02-20 14:28:00,
2013-02-20 06:33:00,33.7,31.2,29.93,SW,225,0.0,0.0,91,0.00,,,0.00,WUHU216HW,2013-02-20 14:33:00,
2013-02-20 06:58:00,33.5,31.3,29.93,SW,225,0.0,0.0,92,0.00,,,0.00,WUHU216HW,2013-02-20 14:58:00,
2013-02-20 07:03:00,33.5,31.3,29.93,SW,225,0.0,0.0,92,0.00,,,0.00,WUHU216HW,2013-02-20 15:03:00,
2013-02-20 07:08:00,33.5,31.3,29.93,SW,225,0.0,0.0,92,0.00,,,0.00,WUHU216HW,2013-02-20 15:08:00,
2013-02-20 07:28:00,33.7,31.2,29.94,SW,225,0.0,0.0,91,0.00,,,0.00,WUHU216HW,2013-02-20 15:28:00,
2013-02-20 07:33:00,33.7,31.2,29.94,SW,225,0.0,0.0,91,0.00,,,0.00,WUHU216HW,2013-02-20 15:33:00,
2013-02-20 07:58:00,34.2,31.8,29.94,SW,225,0.0,0.0,91,0.00,,,0.00,WUHU216HW,2013-02-20 15:58:00,
2013-02-20 08:03:00,34.2,31.8,29.94,SW,225,0.0,0.0,91,0.00,,,0.00,WUHU216HW,2013-02-20 16:03:00,
2013-02-20 08:28:00,34.2,32.0,29.95,SW,225,0.7,0.7,92,0.00,,,0.00,WUHU216HW,2013-02-20 16:28:00,
2013-02-20 08:33:00,34.2,32.0,29.95,SW,225,0.7,0.7,92,0.00,,,0.00,WUHU216HW,2013-02-20 16:33:00,
2013-02-20 08:58:00,35.5,33.0,29.95,South,180,0.7,0.7,91,0.00,,,0.00,WUHU216HW,2013-02-20 16:58:00,
2013-02-20 09:03:00,35.5,33.0,29.95,South,180,0.7,0.7,91,0.00,,,0.00,WUHU216HW,2013-02-20 17:03:00,
2013-02-20 09:28:00,36.5,33.6,29.95,SW,225,2.0,2.0,89,0.01,,,0.00,WUHU216HW,2013-02-20 17:28:00,
2013-02-20 09:33:00,36.5,33.6,29.95,SW,225,2.0,2.0,89,0.01,,,0.00,WUHU216HW,2013-02-20 17:33:00,
2013-02-20 09:58:00,37.3,34.3,29.95,SSW,203,1.3,1.3,89,0.01,,,0.01,WUHU216HW,2013-02-20 17:58:00,
2013-02-20 10:03:00,37.3,34.3,29.95,SSW,203,1.3,1.3,89,0.01,,,0.01,WUHU216HW,2013-02-20 18:03:00,
2013-02-20 10:28:00,37.1,33.5,29.95,SW,225,0.7,0.7,87,0.00,,,0.01,WUHU216HW,2013-02-20 18:28:00,
2013-02-20 10:33:00,37.1,33.5,29.95,SW,225,0.7,0.7,87,0.00,,,0.01,WUHU216HW,2013-02-20 18:33:00,
2013-02-20 10:58:00,37.6,33.5,29.95,SW,225,1.6,1.6,85,0.00,,,0.01,WUHU216HW,2013-02-20 18:58:00,
2013-02-20 11:03:00,37.6,33.5,29.95,SW,225,1.6,1.6,85,0.00,,,0.01,WUHU216HW,2013-02-20 19:03:00,
2013-02-20 11:28:00,37.8,33.4,29.95,SSW,203,1.1,1.1,84,0.00,,,0.01,WUHU216HW,2013-02-20 19:28:00,
2013-02-20 11:33:00,37.8,33.4,29.95,SSW,203,1.1,1.1,84,0.00,,,0.01,WUHU216HW,2013-02-20 19:33:00,
2013-02-20 11:58:00,38.2,33.1,29.96,SSW,203,2.5,2.5,82,0.00,,,0.01,WUHU216HW,2013-02-20 19:58:00,
2013-02-20 12:03:00,38.2,33.1,29.96,SSW,203,2.5,2.5,82,0.00,,,0.01,WUHU216HW,2013-02-20 20:03:00,
2013-02-20 12:28:00,37.8,33.1,29.95,SSW,203,1.8,1.8,83,0.00,,,0.01,WUHU216HW,2013-02-20 20:28:00,
2013-02-20 12:33:00,37.8,33.1,29.95,SSW,203,1.8,1.8,83,0.00,,,0.01,WUHU216HW,2013-02-20 20:33:00,
2013-02-20 12:58:00,39.2,33.7,29.94,SSW,203,6.3,6.3,80,0.00,,,0.01,WUHU216HW,2013-02-20 20:58:00,
2013-02-20 13:03:00,39.2,33.7,29.94,SSW,203,6.3,6.3,80,0.00,,,0.01,WUHU216HW,2013-02-20 21:03:00,
2013-02-20 13:28:00,39.8,33.5,29.94,SSW,203,3.4,3.4,78,0.00,,,0.01,WUHU216HW,2013-02-20 21:28:00,
2013-02-20 13:33:00,39.8,33.5,29.94,SSW,203,3.4,3.4,78,0.00,,,0.01,WUHU216HW,2013-02-20 21:33:00,
2013-02-20 13:58:00,40.7,32.7,29.93,SSW,203,3.4,3.4,73,0.00,,,0.01,WUHU216HW,2013-02-20 21:58:00,
2013-02-20 14:03:00,40.7,32.7,29.93,SSW,203,3.1,3.4,73,0.00,,,0.01,WUHU216HW,2013-02-20 22:03:00,
2013-02-20 14:08:00,40.7,32.7,29.93,SSW,203,3.1,3.1,73,0.00,,,0.01,WUHU216HW,2013-02-20 22:08:00,
2013-02-20 14:28:00,41.4,31.7,29.93,SSW,203,4.7,4.7,68,0.00,,,0.01,WUHU216HW,2013-02-20 22:28:00,
2013-02-20 14:33:00,41.4,31.7,29.93,SSW,203,4.7,4.7,68,0.00,,,0.01,WUHU216HW,2013-02-20 22:33:00,
2013-02-20 14:58:00,41.4,31.2,29.94,SW,225,5.4,5.4,67,0.00,,,0.01,WUHU216HW,2013-02-20 22:58:00,
2013-02-20 15:03:00,41.4,31.2,29.94,SSW,203,5.8,5.8,67,0.00,,,0.01,WUHU216HW,2013-02-20 23:03:00,
2013-02-20 15:08:00,41.4,31.2,29.94,SSW,203,5.8,5.8,67,0.00,,,0.01,WUHU216HW,2013-02-20 23:08:00,
2013-02-20 15:28:00,40.9,31.2,29.94,SSW,203,1.3,1.3,68,0.00,,,0.01,WUHU216HW,2013-02-20 23:28:00,
2013-02-20 15:33:00,40.9,31.2,29.94,SSW,203,1.3,1.3,68,0.00,,,0.01,WUHU216HW,2013-02-20 23:33:00,
2013-02-20 15:58:00,40.9,30.7,29.94,WSW,248,3.4,3.4,67,0.00,,,0.01,WUHU216HW,2013-02-20 23:58:00,
2013-02-20 16:03:00,40.7,30.5,29.94,SW,225,4.7,4.7,67,0.00,,,0.01,WUHU216HW,2013-02-21 00:03:00,
2013-02-20 16:08:00,40.7,30.5,29.94,SW,225,4.7,4.7,67,0.00,,,0.01,WUHU216HW,2013-02-21 00:08:00,
2013-02-20 16:28:00,40.1,30.0,29.94,WSW,248,0.2,0.2,67,0.00,,,0.01,WUHU216HW,2013-02-21 00:28:00,
2013-02-20 16:33:00,40.1,30.0,29.94,WSW,248,0.2,0.2,67,0.00,,,0.01,WUHU216HW,2013-02-21 00:33:00,
2013-02-20 16:58:00,38.9,29.2,29.95,WSW,248,0.0,0.0,68,0.00,,,0.01,WUHU216HW,2013-02-21 00:58:00,
2013-02-20 17:03:00,38.9,29.2,29.95,WSW,248,0.0,0.0,68,0.00,,,0.01,WUHU216HW,2013-02-21 01:03:00,
2013-02-20 17:08:00,38.9,29.2,29.95,WSW,248,0.0,0.0,68,0.00,,,0.01,WUHU216HW,2013-02-21 01:08:00,
2013-02-20 17:28:00,37.1,28.3,29.96,NNW,338,0.0,0.0,70,0.00,,,0.01,WUHU216HW,2013-02-21 01:28:00,
2013-02-20 17:33:00,37.1,28.3,29.96,NNW,338,0.0,0.0,70,0.00,,,0.01,WUHU216HW,2013-02-21 01:33:00,
2013-02-20 17:58:00,34.6,27.0,29.96,North,0,0.0,0.0,74,0.00,,,0.01,WUHU216HW,2013-02-21 01:58:00,
2013-02-20 18:03:00,34.6,27.0,29.96,North,0,0.0,0.0,74,0.00,,,0.01,WUHU216HW,2013-02-21 02:03:00,
2013-02-20 18:28:00,32.6,25.8,29.97,North,0,0.0,0.0,76,0.00,,,0.01,WUHU216HW,2013-02-21 02:28:00,
2013-02-20 18:33:00,32.6,25.8,29.97,North,0,0.0,0.0,76,0.00,,,0.01,WUHU216HW,2013-02-21 02:33:00,
2013-02-20 18:58:00,31.1,25.1,29.97,SW,225,0.0,0.0,78,0.00,,,0.01,WUHU216HW,2013-02-21 02:58:00,
2013-02-20 19:03:00,31.1,25.1,29.97,SW,225,0.0,0.0,78,0.00,,,0.01,WUHU216HW,2013-02-21 03:03:00,
2013-02-20 19:28:00,29.9,24.1,29.98,NE,45,0.0,0.0,79,0.00,,,0.01,WUHU216HW,2013-02-21 03:28:00,
2013-02-20 19:33:00,29.9,24.1,29.98,NE,45,0.0,0.0,79,0.00,,,0.01,WUHU216HW,2013-02-21 03:33:00,
2013-02-20 19:58:00,29.3,23.9,29.98,NE,45,0.0,0.0,80,0.00,,,0.01,WUHU216HW,2013-02-21 03:58:00,
2013-02-20 20:03:00,29.3,23.9,29.98,NE,45,0.0,0.0,80,0.00,,,0.01,WUHU216HW,2013-02-21 04:03:00,
2013-02-20 20:08:00,29.3,23.9,29.98,NE,45,0.0,0.0,80,0.00,,,0.01,WUHU216HW,2013-02-21 04:08:00,
2013-02-20 20:28:00,28.8,23.9,29.98,NE,45,0.0,0.0,82,0.00,,,0.01,WUHU216HW,2013-02-21 04:28:00,
2013-02-20 20:33:00,28.8,23.9,29.98,NE,45,0.0,0.0,82,0.00,,,0.01,WUHU216HW,2013-02-21 04:33:00,
2013-02-20 20:58:00,28.1,23.2,29.98,NE,45,0.0,0.0,82,0.00,,,0.01,WUHU216HW,2013-02-21 04:58:00,
2013-02-20 21:00:00,28.1,23.2,29.98,NE,45,0.0,0.0,82,0.00,,,0.01,WUHU216HW,2013-02-21 05:00:00,
2013-02-20 21:05:00,28.1,23.2,29.98,NE,45,0.0,0.0,82,0.00,,,0.01,WUHU216HW,2013-02-21 05:05:00,
2013-02-20 21:28:00,27.7,23.2,29.98,SSE,158,0.0,0.0,83,0.00,,,0.01,WUHU216HW,2013-02-21 05:28:00,
2013-02-20 21:33:00,27.7,23.2,29.98,SSE,158,0.0,0.0,83,0.00,,,0.01,WUHU216HW,2013-02-21 05:33:00,
2013-02-20 21:58:00,27.0,22.5,29.98,NW,315,0.0,0.0,83,0.00,,,0.01,WUHU216HW,2013-02-21 05:58:00,
2013-02-20 22:03:00,27.0,22.5,29.98,NW,315,0.0,0.0,83,0.00,,,0.01,WUHU216HW,2013-02-21 06:03:00,
2013-02-20 22:28:00,26.5,22.0,29.98,NW,315,0.0,0.0,83,0.00,,,0.01,WUHU216HW,2013-02-21 06:28:00,
2013-02-20 22:33:00,26.5,22.0,29.98,NW,315,0.0,0.0,83,0.00,,,0.01,WUHU216HW,2013-02-21 06:33:00,
2013-02-20 22:58:00,26.1,21.6,29.98,North,0,0.0,0.0,83,0.00,,,0.01,WUHU216HW,2013-02-21 06:58:00,
2013-02-20 23:03:00,25.9,21.4,29.98,North,0,0.0,0.0,83,0.00,,,0.01,WUHU216HW,2013-02-21 07:03:00,
2013-02-20 23:08:00,25.9,21.4,29.98,North,0,0.0,0.0,83,0.00,,,0.01,WUHU216HW,2013-02-21 07:08:00,
2013-02-20 23:28:00,25.6,21.4,29.98,North,0,0.0,0.0,84,0.00,,,0.01,WUHU216HW,2013-02-21 07:28:00,
2013-02-20 23:33:00,25.6,21.4,29.98,North,0,0.0,0.0,84,0.00,,,0.01,WUHU216HW,2013-02-21 07:33:00,
2013-02-20 23:58:00,25.4,21.8,29.99,North,0,0.0,0.0,86,0.00,,,0.00,WUHU216HW,2013-02-21 07:58:00,